Other Public Products
Issued by NWS Grand Forks, ND

Home | Current Version | Previous Version | Graphics & Text | Print | Product List | Glossary On
Versions: 1 2 3 4 5 6 7 8 9 10 11 12 13 14 15 16 17 18 19 20 21 22 23 24 25 26 27 28 29 30 31 32 33 34 35 36 37 38 39 40 41 42 43 44 45 46 47 48 49 50
000
FPUS83 KFGF 010931
OPUFGF
PRAIRIE TO PINES WEATHER ROUNDUP
NATIONAL WEATHER SERVICE EASTERN NORTH DAKOTA/GRAND FORKS ND
400 AM CDT FRI AUG 01 2014

 **SATELLITE DATA USED TO AUGMENT SKY COVER AT AUTOMATED STATIONS**
 *****  WEATHER ACROSS EASTERN NORTH DAKOTA  *****

CITY           SKY/WX    TMP DP  RH WIND       PRES   REMARKS
GRAND FORKS    MOCLDY    62  60  93 CALM      30.02S
GRAND FORKS AF PTCLDY    60  60 100 NW5       30.04R
GRAND CITY NWS   N/A     63 N/A N/A NW1         N/A
BUXTON           N/A     64  64  98 N2          N/A
DEVILS LAKE    CLEAR     63  57  82 NE3       30.06R
FARGO          CLEAR     63  59  87 W3        30.02R
WAHPETON ARPT  SUNNY     57  52  82 SW3       30.04R
$$

 *****  WEATHER ACROSS CENTRAL AND WESTERN NORTH DAKOTA  *****

CITY           SKY/WX    TMP DP  RH WIND       PRES   REMARKS
JAMESTOWN      CLEAR     61  57  87 SW3       30.06R
BISMARCK       PTCLDY    62  56  80 NE7       30.07R
MINOT          CLEAR     57  54  89 CALM      30.06S
MINOT AFB      CLEAR     56  55  99 N2        30.06S
GARRISON         N/A     59  55  87 E3        30.07R
WILLISTON      CLEAR     67  58  72 CALM      30.03F
DICKINSON      CLEAR     58  53  84 SE8       30.05S
HETTINGER      CLEAR     55  52  89 CALM      30.07S
$$

 *****  OTHER OBSERVATIONS NORTHEAST NORTH DAKOTA  *****

CITY           SKY/WX    TMP DP  RH WIND       PRES   REMARKS
WALHALLA         N/A     55  55 100 CALM        N/A
LANGDON        FOG       50  48  93 CALM      30.08R VSB 1/2
CAVALIER       FAIR      59  57  94 NW3       30.04S
GRAFTON        FAIR      61  59  94 NW5       30.03S
CANDO          FAIR      57  57 100 CALM      30.08S FOG
FORT TOTTEN      N/A     62  61  96 CALM      29.95S
ROLLA          FAIR      52  52 100 CALM      30.10S
RUGBY          FAIR      57  57 100 E5        30.07S FOG
 ***** THE ABOVE OBSERVATIONS ARE NON NWS ARE NOT QUALITY
        CONTROLLED AND MAY MIS-REPORT RAIN FOR SNOW...
$$

 *****  OTHER OBSERVATIONS SOUTHEAST NORTH DAKOTA *****

CITY           SKY/WX    TMP DP  RH WIND       PRES   REMARKS
COOPERSTOWN    NOT AVBL
VALLEY CITY    FAIR      59  59 100 CALM      30.06R
OAKES          NOT AVBL
GWINNER        SUNNY     61  61 100 W8        30.06S
BUFFALO          N/A     59  55  87 NW2         N/A
WYNDMERE       NOT AVBL
 ***** THE ABOVE OBSERVATIONS ARE NON NWS ARE NOT QUALITY
       CONTROLLED AND MAY MIS-REPORT RAIN FOR SNOW...
$$

  *****  WEATHER ACROSS NORTHERN MINNESOTA  *****

CITY           SKY/WX    TMP DP  RH WIND       PRES   REMARKS
FLAG ISLAND    CLEAR     66  63  88 CALM      30.01S
WARROAD        CLEAR     55  52  88 CALM      30.02S
ROSEAU         CLEAR     57  54  88 CALM      30.03R
HALLOCK        CLEAR     59  55  88 N3        30.03S
THF RVR FALLS  CLEAR     59  57  94 CALM      30.04R
HALSTAD          N/A     56  54  91 NE2         N/A
FOSSTON        PTCLDY    55  54  94 CALM      30.05R FOG
BAUDETTE       CLEAR     58  56  93 CALM      30.03R
WASKISH        CLEAR     54  54 100 CALM      30.02R FOG
CROOKSTON      FOG       61  59  94 NW3       30.04R VSB 1/2
$$
  *****  WEATHER ACROSS CENTRAL AND WEST MINNESOTA  *****

CITY           SKY/WX    TMP DP  RH WIND       PRES   REMARKS
BEMIDJI        CLEAR     54  53  95 CALM      30.03S
PARK RAPIDS    CLEAR     57  55  93 CALM      30.03S
WADENA         CLEAR     57  55  94 CALM      30.04S FOG
DETROIT LAKES  RAIN      64  61  88 CALM      30.05S
MOORHEAD       PTCLDY    61  61 100 CALM      30.03S
FERGUS FALLS   CLEAR     64  61  88 CALM      30.04R
ELBOW LAKE     FAIR      62  59  92 CALM      30.04S
MORRIS MN      CLEAR     57  55  94 CALM      30.04S
STAPLES        CLEAR     57  55  94 CALM      30.04R
WHEATON        CLEAR     57  57 100 CALM      30.06S
$$
  *****  WEATHER ELSEWHERE ACROSS MINNESOTA  *****

CITY           SKY/WX    TMP DP  RH WIND       PRES   REMARKS
DULUTH         PTCLDY    57  52  83 CALM      30.02R
INTRNTL FALLS  CLEAR     48  47  96 CALM      30.02R
ELY            CLEAR     46  45  93 CALM      30.03S
CLOQUET        CLEAR     54  52  94 NW3       30.02R
BRAINERD       CLEAR     55  55 100 CALM      30.03S FOG
HIBBING        CLEAR     49  47  93 CALM      30.02F FOG
ALEXANDRIA     PTCLDY    63  61  93 CALM      30.06R
SAINT CLOUD    CLEAR     61  58  90 CALM      30.02R
MINNEAPOLIS    CLEAR     67  60  78 S5        30.02S
$$

  *****  WEATHER ACROSS SOUTH DAKOTA  *****

CITY           SKY/WX    TMP DP  RH WIND       PRES   REMARKS
SIOUX FALLS    CLEAR     57  56  96 CALM      30.07S
BROOKINGS      NOT AVBL
WATERTOWN      CLEAR     56  53  90 CALM      30.07S
HURON          CLEAR     57  54  89 CALM      30.06R
SISSETON         N/A     60  58  92 W3        30.03S
ABERDEEN       CLEAR     53  53 100 CALM      30.06S
MITCHELL       CLEAR     59  57  93 CALM      30.07R
PIERRE         CLEAR     65  58  78 SE7       30.04S
MOBRIDGE       PTCLDY    62  58  86 SE6       30.04S
RAPID CITY     CLEAR     58  51  78 E3        30.11S
$$

  *****  SOME WEATHER IN NEARBY STATES *****

CITY           SKY/WX    TMP DP  RH WIND       PRES   REMARKS
GLASGOW MT     MOCLDY    69  55  60 N10       30.01R
GREAT FALLS MT CLEAR     54  45  71 SW8       30.13R
CHEYENNE WY    CLEAR     54  48  80 SE3       30.30F
SCOTTSBLUFF NE CLEAR     57  49  74 W6        30.19S
OMAHA NE       MOCLDY    68  60  75 E14       30.05F
DES MOINES IA  MOCLDY    65  61  87 CALM      30.06S
DAVENPORT IA   MOCLDY    68  61  78 S8        30.07R
CHICAGO IL     PTCLDY    64  57  78 W6        30.05S
EAU CLAIRE WI  PTCLDY    63  61  93 CALM      30.01S
LA CROSSE WI   CLEAR     65  61  87 S7        30.03R
$$

  *****  SOME NATIONAL WEATHER *****

CITY           SKY/WX    TMP DP  RH WIND       PRES   REMARKS
LA GUARDIA NY  MOCLDY    72  66  81 S8        30.16S
RALEIGH NC     CLOUDY    70  67  90 NE6       30.11F
ATLANTA GA     CLOUDY    68  65  90 E12       30.04F
NEW ORLEANS LA CLOUDY    77  71  82 CALM      29.97S
OKLAHOMA CITY  MOCLDY    66  63  90 CALM      30.08S FOG
ALBUQUERQUE NM MOCLDY    64  54  69 E8        30.27F
SALT LAKE CITY PTCLDY    68  54  60 S6        30.12S
LOS ANGELES CA PTCLDY    68  63  84 CALM      29.92F
BOISE ID       MOCLDY    71  49  45 SE8       30.07R
SEATTLE WA     PTCLDY    65  48  54 N5        30.05S
$$

*** WEATHER ACROSS MANITOBA...SASKATCHEWAN AND ONTARIO ***
                ***ONTARIO***

CITY           SKY/WX    TMP DP  RH WIND       PRES   REMARKS
GERALDTON      CLOUDY    52  52 100 NW2       30.00R FOG
THUNDER BAY    PTCLDY    50  50 100 W3        30.01R
SIOUX LOOKOUT  MOCLDY    48  48 100 CALM      30.02S
TORONTO        MOCLDY    64  57  77 SW5       30.06R
BIG TROUT LK   CLOUDY    52  48  87 E5        30.02S
PICKLE LAKE    NOT AVBL
DRYDEN         PTCLDY    55  55 100 VRB2      30.03R
KENORA         MOCLDY    59  54  82 N6        30.04S
$$
                *** MANITOBA***

CITY           SKY/WX    TMP DP  RH WIND       PRES   REMARKS
BRANDON        CLEAR     55  54  94 N5        30.08R
DAUPHIN        CLEAR     59  55  88 W10       30.05R
ISLAND LAKE    PTCLDY    55  52  88 E2        30.03F
PILOT MOUND      N/A     52  50  93 W2          N/A
THE PAS        PTCLDY    61  59  94 SE5       30.00R
THOMPSON       TSTM      61  57  88 W3        29.99S
WINNIPEG       MOCLDY    55  54  94 N2        30.04S
LYNN LAKE      PTCLDY    61  59  94 NW6       30.01F
CHURCHILL      CLEAR     54  50  87 S12       29.98F
GILLAM         CLOUDY    50  50 100 SE5       30.01F
$$
                ***SASKATCHEWAN***

CITY           SKY/WX    TMP DP  RH WIND       PRES   REMARKS
ESTEVAN        PTCLDY    57  55  94 E5        30.08
KINDERSLEY     PTCLDY    61  59  94 E7        30.06F
LLOYDMINSTER   TSTM      64  63  94 W10       30.13R
PRINCE ALBERT  MOCLDY    63  59  88 W6        30.06R
REGINA         MOCLDY    63  57  82 SE6       30.09S
YORKTON        NOT AVBL



USA.gov is the U.S. government's official web portal to all federal, state and local government web resources and services.